This demonstration page uses our WeatherBlox Daily Observations layout. Learn more.

Left ArrowRight Arrow

Hourly Observations for September 29, 2021

Temp ( °F °C ) Dew Point ( °F °C ) Humidity (%) Winds ( mph kmh ) Pressure ( in mb ) Visibility ( mi km ) Precip ( " mm )
12:15 am 00:15 Clear 70 21 54 12.2 57 57 SSE 12 19 29.72 1006 10 16 N/A
12:35 am 00:35 Clear 69 20.5 54 12.3 59 59 SE 10 17 29.72 1007 10 16 N/A
12:55 am 00:55 Clear 68 20 54 12.2 61 61 SE 10 17 29.73 1007 10 16 N/A
1:15 am 01:15 Clear 67 19.6 54 12.3 63 63 SE 10 17 29.73 1007 10 16 N/A
1:35 am 01:35 Clear 67 19.4 54 12.3 64 64 SE 9 15 29.72 1007 10 16 N/A
1:55 am 01:55 Clear 66 18.8 55 12.5 67 67 SE 8 13 29.73 1007 10 16 N/A
2:15 am 02:15 Clear 65 18.6 55 12.5 68 68 SE 8 13 29.74 1007 10 16 N/A
2:35 am 02:35 Clear 66 18.8 55 12.6 67 67 SE 9 15 29.74 1007 10 16 N/A
2:55 am 02:55 Clear 66 19 55 12.6 67 67 SE 12 19 29.73 1007 10 16 N/A
3:15 am 03:15 Clear 66 19 55 12.8 67 67 SE 9 15 29.73 1007 10 16 N/A
3:35 am 03:35 Clear 65 18.5 55 13 71 71 SE 10 17 29.72 1006 10 16 N/A
3:55 am 03:55 Clear 64 18 55 13 73 73 SE 8 13 29.72 1007 10 16 N/A
4:15 am 04:15 Clear 64 17.5 56 13.1 76 76 SE 7 11 29.73 1007 10 16 N/A
4:35 am 04:35 Clear 63 17.1 56 13.1 77 77 SE 8 13 29.74 1007 10 16 N/A
4:55 am 04:55 Clear 63 17.1 56 13.2 78 78 SE 8 13 29.74 1007 10 16 N/A
5:15 am 05:15 Clear 63 17 56 13.3 79 79 SE 8 13 29.73 1007 10 16 N/A
5:35 am 05:35 Clear 62 16.7 56 13.1 79 79 SE 8 13 29.75 1007 10 16 N/A
5:55 am 05:55 Clear 61 16.3 56 13.1 81 81 SE 7 11 29.75 1007 10 16 N/A
6:15 am 06:15 Clear 61 16.1 56 13.4 84 84 SE 7 11 29.76 1008 10 16 N/A
6:35 am 06:35 Clear 61 16.2 56 13.5 84 84 SE 8 13 29.76 1008 10 16 N/A
6:55 am 06:55 Clear 61 16 56 13.5 85 85 SE 6 9 29.77 1008 10 16 N/A
7:15 am 07:15 Clear 60 15.6 56 13.5 87 87 SE 5 7 29.77 1008 10 16 N/A
7:35 am 07:35 Sunny 60 15.6 56 13.5 87 87 SE 5 7 29.77 1008 10 16 N/A
7:55 am 07:55 Sunny 61 16 57 13.8 87 87 SE 5 7 29.77 1008 10 16 N/A
8:15 am 08:15 Sunny 62 16.7 58 14.2 85 85 SE 6 9 29.78 1008 10 16 N/A
8:35 am 08:35 Sunny with Nearby Thunderstorms 64 17.7 58 14.5 82 82 SSE 7 11 29.77 1008 10 16 N/A
8:55 am 08:55 Sunny 65 18.5 58 14.6 78 78 SSE 9 15 29.76 1008 10 16 N/A
9:15 am 09:15 Sunny with Nearby Thunderstorms 67 19.6 59 14.9 74 74 SSE 8 13 29.75 1007 10 16 N/A
9:35 am 09:35 Sunny 69 20.6 59 15 70 70 S 12 19 29.75 1008 10 16 N/A
9:55 am 09:55 Partly Cloudy 71 21.7 59 15 66 66 SSE 14 22 29.75 1008 10 16 N/A
10:15 am 10:15 Mostly Cloudy 71 21.6 59 15 66 66 SE 16 26 29.76 1008 10 16 N/A
10:35 am 10:35 Partly Cloudy 73 22.5 59 15 63 63 SE 17 28 29.77 1008 10 16 N/A
10:55 am 10:55 Partly Cloudy 74 23.3 60 15.6 62 62 SE 16 26 29.76 1008 10 16 N/A
11:15 am 11:15 Partly Cloudy 72 22.1 60 15.6 67 67 SE 18 30 29.78 1008 10 16 N/A
11:35 am 11:35 Mostly Cloudy 73 23 60 15.3 62 62 SSE 15 24 29.77 1008 10 16 N/A
11:55 am 11:55 Cloudy with Light Rain 73 22.5 60 15.3 64 64 SSE 9 15 29.79 1009 10 16 N/A
12:15 pm 12:15 Cloudy with Light Rain 70 21 63 17.2 79 79 SE 7 11 29.79 1009 5 8 0.04 1.02
12:35 pm 12:35 Cloudy 71 21.8 63 17.2 75 75 SE 7 11 29.77 1008 10 16 0.04 1.02
12:55 pm 12:55 Cloudy with Light Rain 72 22.2 63 17.1 73 73 SE 10 17 29.77 1008 10 16 0.04 1.02
1:15 pm 13:15 Mostly Cloudy 72 22 63 17.1 74 74 S 8 13 29.77 1008 10 16 N/A
1:35 pm 13:35 Sunny 75 24.1 62 16.9 64 64 SE 9 15 29.75 1008 10 16 N/A
1:55 pm 13:55 Sunny 78 25.7 61 16 55 55 SSE 12 19 29.73 1007 10 16 N/A
2:15 pm 14:15 Sunny 80 26.5 60 15.3 50 50 SE 15 24 29.72 1006 10 16 N/A
2:35 pm 14:35 Partly Cloudy 81 27 58 14.6 47 47 SSE 17 28 29.70 1006 10 16 N/A
2:55 pm 14:55 Partly Cloudy 81 27.2 59 14.8 47 47 SSE 14 22 29.70 1006 10 16 N/A
3:15 pm 15:15 Partly Cloudy 82 27.8 59 14.8 45 45 SE 16 26 29.70 1006 10 16 N/A
3:35 pm 15:35 Partly Cloudy 81 27.2 59 14.8 47 47 SE 16 26 29.70 1006 10 16 N/A
3:55 pm 15:55 Mostly Cloudy 82 28 59 15 45 45 SE 17 28 29.69 1006 10 16 N/A
4:15 pm 16:15 Partly Cloudy 81 27.2 58 14.3 45 45 SE 17 28 29.70 1006 10 16 N/A
4:35 pm 16:35 Mostly Cloudy 82 27.9 58 14.4 44 44 SE 20 31 29.68 1005 10 16 N/A
4:55 pm 16:55 Mostly Cloudy 83 28.3 57 13.7 41 41 SE 18 30 29.68 1005 10 16 N/A
5:15 pm 17:15 Partly Cloudy 82 28 55 12.5 38 38 SE 21 33 29.68 1005 10 16 N/A
5:35 pm 17:35 Partly Cloudy 82 27.6 55 12.6 40 40 SE 18 30 29.70 1006 10 16 N/A
5:55 pm 17:55 Sunny 81 27.2 53 11.9 39 39 SE 21 33 29.70 1006 10 16 N/A
6:15 pm 18:15 Sunny 80 26.8 54 12 40 40 SE 17 28 29.71 1006 10 16 N/A
6:35 pm 18:35 Sunny 79 26 54 12.4 43 43 SE 18 30 29.73 1007 10 16 N/A
6:55 pm 18:55 Sunny 77 25 55 13 47 47 ESE 15 24 29.75 1007 10 16 N/A
7:15 pm 19:15 Sunny 75 24.1 57 14 53 53 ESE 13 20 29.76 1008 10 16 N/A
7:35 pm 19:35 Clear 74 23.1 57 14.1 57 57 ESE 10 17 29.78 1009 10 16 N/A
7:55 pm 19:55 Clear 72 22.4 58 14.5 61 61 ESE 10 17 29.79 1009 10 16 N/A
8:15 pm 20:15 Clear 72 22.2 58 14.7 63 63 SE 12 19 29.79 1009 10 16 N/A
8:35 pm 20:35 Clear 71 21.5 59 15 67 67 ESE 9 15 29.81 1009 10 16 N/A
8:55 pm 20:55 Clear 69 20.8 59 15.1 70 70 ESE 9 15 29.82 1010 10 16 N/A
9:15 pm 21:15 Clear 68 20.2 59 15.2 73 73 ESE 7 11 29.84 1010 10 16 N/A
9:35 pm 21:35 Clear 69 20.5 60 15.4 73 73 SE 12 19 29.84 1011 10 16 N/A
9:55 pm 21:55 Clear 69 20.3 60 15.6 75 75 SE 15 24 29.84 1011 10 16 N/A
10:15 pm 22:15 Clear 69 20.5 61 16 76 76 SE 14 22 29.84 1011 10 16 N/A
10:35 pm 22:35 Clear 69 20.5 61 16.2 76 76 SE 16 26 29.84 1011 10 16 N/A
10:55 pm 22:55 Partly Cloudy 69 20.5 62 16.5 78 78 SE 15 24 29.85 1011 10 16 N/A
11:15 pm 23:15 Partly Cloudy 69 20.4 62 16.6 79 79 SE 12 19 29.86 1011 10 16 N/A
11:35 pm 23:35 Mostly Cloudy with Nearby Thunderstorms 69 20.5 62 16.7 79 79 NW 9 15 29.91 1013 10 16 N/A
11:55 pm 23:55 Cloudy with Light Rain 66 18.7 56 13.2 71 71 NW 18 30 29.95 1014 10 16 N/A

Powered by AerisWeather